| time (UTC) | temp F | wind direction | speed knots | gust knots | rain 1hr in | rain 24hr in | rain mn in | humidity % | barometer mb |
| 20260506001538 | 77 | 357 | 6.1 | 10.4 | 0.00 | 0.00 | 0.00 | 43 | 1012.8 |
| 20260505234531 | 78 | 351 | 6.1 | 11.3 | 0.00 | 0.00 | 0.00 | 43 | 1012.9 |
| 20260505233032 | 77 | 349 | 6.1 | 10.4 | 0.00 | 0.00 | 0.00 | 43 | 1013.0 |
| 20260505231537 | 77 | 350 | 7.0 | 10.4 | 0.00 | 0.00 | 0.00 | 42 | 1013.1 |
| 20260505230033 | 77 | 350 | 7.0 | 12.2 | 0.00 | 0.00 | 0.00 | 42 | 1013.2 |
| 20260505223036 | 77 | 357 | 7.0 | 10.4 | 0.00 | 0.00 | 0.00 | 42 | 1013.4 |
| 20260505220032 | 77 | 345 | 6.1 | 10.4 | 0.00 | 0.00 | 0.00 | 43 | 1013.7 |
| 20260505214532 | 76 | 349 | 5.2 | 10.4 | 0.00 | 0.00 | 0.00 | 43 | 1013.8 |
| 20260505213035 | 76 | 349 | 5.2 | 9.6 | 0.00 | 0.00 | 0.00 | 44 | 1013.9 |
| 20260505210039 | 75 | 354 | 5.2 | 9.6 | 0.00 | 0.00 | 0.00 | 45 | 1014.2 |
| 20260505201650 | 71 | 8 | 5.2 | 10.4 | 0.00 | 0.00 | 0.00 | 49 | 1014.4 |
| 20260505200032 | 71 | 356 | 6.1 | 10.4 | 0.00 | 0.00 | 0.00 | 50 | 1014.6 |
| 20260505194612 | 70 | 3 | 5.2 | 9.6 | 0.00 | 0.00 | 0.00 | 51 | 1014.7 |
| 20260505193029 | 70 | 345 | 6.1 | 10.4 | 0.00 | 0.00 | 0.00 | 52 | 1014.7 |
| 20260505190105 | 69 | 342 | 5.2 | 11.3 | 0.00 | 0.00 | 0.00 | 54 | 1014.8 |
| 20260505184609 | 68 | 322 | 5.2 | 9.6 | 0.00 | 0.00 | 0.00 | 55 | 1014.9 |
| 20260505183030 | 68 | 344 | 5.2 | 9.6 | 0.00 | 0.00 | 0.00 | 57 | 1014.9 |
| 20260505180037 | 66 | 336 | 5.2 | 9.6 | 0.00 | 0.00 | 0.00 | 59 | 1014.9 |
| 20260505174530 | 66 | 354 | 4.3 | 8.7 | 0.00 | 0.00 | 0.00 | 59 | 1014.9 |
| 20260505173029 | 67 | 344 | 2.6 | 7.0 | 0.00 | 0.00 | 0.00 | 60 | 1014.8 |
| 20260505170029 | 65 | 23 | 1.7 | 4.3 | 0.00 | 0.00 | 0.00 | 64 | 1014.9 |
| 20260505164530 | 64 | 17 | 0.9 | 4.3 | 0.00 | 0.00 | 0.00 | 66 | 1014.9 |
| 20260505163042 | 63 | 356 | 1.7 | 4.3 | 0.00 | 0.00 | 0.00 | 68 | 1014.9 |
| 20260505161530 | 62 | 355 | 1.7 | 5.2 | 0.00 | 0.00 | 0.00 | 69 | 1014.9 |
| 20260505160107 | 62 | 45 | 1.7 | 4.3 | 0.00 | 0.00 | 0.00 | 73 | 1014.9 |
| 20260505153031 | 59 | 80 | 0.0 | 4.3 | 0.00 | 0.00 | 0.00 | 80 | 1014.6 |
| 20260505151532 | 56 | 131 | 0.0 | 2.6 | 0.00 | 0.00 | 0.00 | 84 | 1014.5 |
| 20260505124531 | 50 | 120 | 1.7 | 3.5 | 0.00 | 0.00 | 0.00 | 84 | 1013.0 |
| 20260505121529 | 51 | 164 | 1.7 | 3.5 | 0.00 | 0.00 | 0.00 | 83 | 1012.7 |
| 20260505120030 | 51 | 148 | 2.6 | 6.1 | 0.00 | 0.00 | 0.00 | 82 | 1012.7 |
| 20260505114533 | 52 | 119 | 0.9 | 3.5 | 0.00 | 0.00 | 0.00 | 81 | 1012.7 |
| 20260505113146 | 52 | 89 | 0.9 | 4.3 | 0.00 | 0.00 | 0.00 | 80 | 1012.6 |
| 20260505111531 | 54 | 113 | 0.0 | 2.6 | 0.00 | 0.00 | 0.00 | 78 | 1012.5 |
| 20260505101608 | 55 | 113 | 0.0 | 2.6 | 0.00 | 0.00 | 0.00 | 76 | 1012.1 |
| 20260505100108 | 56 | 360 | 0.0 | 1.7 | 0.00 | 0.00 | 0.00 | 75 | 1012.1 |
| 20260505094530 | 56 | 357 | 0.9 | 4.3 | 0.00 | 0.00 | 0.00 | 75 | 1012.0 |
| 20260505091530 | 56 | 64 | 0.0 | 1.7 | 0.00 | 0.00 | 0.00 | 73 | 1011.9 |
| 20260505090031 | 58 | 356 | 1.7 | 4.3 | 0.00 | 0.00 | 0.00 | 71 | 1011.8 |
| 20260505084645 | 58 | 337 | 2.6 | 3.5 | 0.00 | 0.00 | 0.00 | 71 | 1011.8 |
| 20260505080107 | 58 | 320 | 2.6 | 6.1 | 0.00 | 0.00 | 0.00 | 70 | 1011.8 |
| 20260505074530 | 58 | 336 | 0.0 | 4.3 | 0.00 | 0.00 | 0.00 | 69 | 1011.8 |
| 20260505071531 | 58 | 128 | 0.0 | 2.6 | 0.00 | 0.00 | 0.00 | 66 | 1011.5 |
| 20260505064528 | 60 | 157 | 0.9 | 5.2 | 0.00 | 0.00 | 0.00 | 63 | 1011.4 |
| 20260505063028 | 62 | 300 | 1.7 | 7.0 | 0.00 | 0.00 | 0.00 | 60 | 1011.4 |
| 20260505054530 | 63 | 313 | 3.5 | 8.7 | 0.00 | 0.00 | 0.00 | 56 | 1011.2 |
| 20260505051534 | 66 | 308 | 3.5 | 8.7 | 0.00 | 0.00 | 0.00 | 52 | 1010.9 |
| 20260505041530 | 68 | 304 | 5.2 | 13.9 | 0.00 | 0.00 | 0.00 | 46 | 1010.4 |
| 20260505040044 | 69 | 309 | 7.0 | 13.9 | 0.00 | 0.00 | 0.00 | 46 | 1010.1 |
| 20260505033145 | 69 | 311 | 6.1 | 12.2 | 0.00 | 0.00 | 0.00 | 45 | 1009.8 |
| 20260505030033 | 71 | 305 | 7.0 | 12.2 | 0.00 | 0.00 | 0.00 | 43 | 1009.3 |
| 20260505024606 | 72 | 306 | 7.8 | 13.9 | 0.00 | 0.00 | 0.00 | 42 | 1009.2 |
| 20260505023030 | 73 | 303 | 10.4 | 18.2 | 0.00 | 0.00 | 0.00 | 40 | 1009.0 |
| 20260505014532 | 76 | 304 | 11.3 | 20.0 | 0.00 | 0.00 | 0.00 | 36 | 1008.9 |
| 20260505013031 | 77 | 298 | 10.4 | 19.1 | 0.00 | 0.00 | 0.00 | 35 | 1008.9 |
| 20260505004540 | 0 | 0 | 0.0 | 0.0 | 0.00 | 0.00 | 0.00 | 100 |